WE0DX-1 Weather Reports


time (UTC)temp
C
wind
direction
speed
KPH
gust
KPH
rain 1hr
cm
rain 24hr
cm
rain mn
cm
humidity
%
barometer
mb
20260505101004 11 46 1.6 1.6 0.00 0.08 0.08 61 1009.0
20260505100501 11 346 4.8 4.8 0.00 0.08 0.08 61 1009.3
20260505095958 11 55 0.0 1.6 0.00 0.08 0.08 61 1009.3
20260505095454 11 42 1.6 3.2 0.00 0.08 0.08 61 1009.3
20260505094950 11 53 0.0 3.2 0.00 0.08 0.08 61 1008.7
20260505094448 11 354 0.0 3.2 0.00 0.08 0.08 60 1009.4
20260505093943 11 53 0.0 1.6 0.00 0.08 0.08 60 1009.2
20260505093440 11 56 0.0 1.6 0.00 0.08 0.08 61 1009.2
20260505092937 11 41 1.6 3.2 0.00 0.08 0.08 60 1008.8
20260505092435 11 50 3.2 4.8 0.00 0.08 0.08 60 1008.3
20260505091933 11 47 3.2 9.7 0.00 0.08 0.08 60 1007.7
20260505091430 11 45 0.0 4.8 0.00 0.08 0.08 61 1007.8
20260505090928 11 51 1.6 4.8 0.00 0.08 0.08 62 1007.6
20260505090426 11 51 0.0 4.8 0.00 0.08 0.08 62 1007.5
20260505085923 11 320 3.2 4.8 0.00 0.08 0.08 64 1007.4
20260505085421 11 358 4.8 4.8 0.00 0.08 0.08 65 1007.5
20260505084919 11 53 0.0 3.2 0.00 0.08 0.08 66 1007.4
20260505084416 11 53 3.2 4.8 0.00 0.08 0.08 66 1007.3
20260505083914 11 46 3.2 8.0 0.00 0.08 0.08 66 1007.5
20260505083412 11 38 4.8 4.8 0.00 0.08 0.08 65 1007.4
20260505082908 11 28 3.2 3.2 0.00 0.08 0.08 65 1007.4
20260505082403 11 73 8.0 11.3 0.00 0.08 0.08 66 1007.0
20260505081901 11 50 1.6 8.0 0.00 0.08 0.08 66 1007.8
20260505081357 10 14 3.2 4.8 0.00 0.08 0.08 70 1008.1
20260505080854 10 66 0.0 1.6 0.00 0.08 0.08 72 1007.8
20260505080350 10 43 1.6 1.6 0.00 0.08 0.08 75 1008.1
20260505075846 10 57 4.8 8.0 0.00 0.08 0.08 72 1007.8
20260505075343 10 55 0.0 3.2 0.18 0.08 0.08 74 1008.0
20260505074840 10 48 3.2 8.0 0.18 0.08 0.08 74 1008.3
20260505074337 10 51 1.6 3.2 0.00 0.05 0.05 70 1009.0
20260505073834 10 51 1.6 3.2 0.13 0.05 0.05 69 1009.5
20260505073332 11 41 1.6 3.2 0.13 0.05 0.05 69 1009.0
20260505072829 12 53 0.0 0.0 0.18 0.03 0.03 72 1008.9
20260505072325 12 20 1.6 3.2 0.18 0.03 0.03 58 1008.7
20260505071821 13 5 6.4 8.0 0.00 0.00 0.00 49 1008.7
20260505071318 14 41 1.6 4.8 0.00 0.00 0.00 44 1008.5
20260505070816 15 313 6.4 11.3 0.00 0.00 0.00 41 1008.3
20260505070312 15 332 6.4 12.9 0.00 0.00 0.00 41 1008.1
20260505065807 15 47 1.6 8.0 0.00 0.00 0.00 42 1007.5
20260505065304 15 44 1.6 9.7 0.00 0.00 0.00 42 1007.0
20260505064802 15 53 4.8 8.0 0.00 0.00 0.00 41 1006.8
20260505064258 15 35 4.8 12.9 0.00 0.00 0.00 41 1006.5
20260505063756 15 351 6.4 11.3 0.00 0.00 0.00 41 1006.7
20260505063252 15 344 4.8 12.9 0.00 0.00 0.00 41 1006.7
20260505062749 15 324 8.0 14.5 0.00 0.00 0.00 40 1006.6
20260505062246 15 351 4.8 11.3 0.00 0.00 0.00 41 1006.5
20260505061743 15 345 8.0 12.9 0.00 0.00 0.00 40 1006.4
20260505061241 15 45 4.8 17.7 0.00 0.00 0.00 40 1006.2
20260505060738 16 335 11.3 14.5 0.00 0.00 0.00 40 1005.9
20260505060236 16 49 3.2 16.1 0.00 0.00 0.00 42 1006.2
20260505055730 16 344 6.4 20.9 0.00 0.00 0.00 42 1005.8
20260505055227 16 0 11.3 22.5 0.00 0.00 0.00 40 1005.4
20260505054725 17 39 8.0 11.3 0.00 0.00 0.00 40 1005.7
20260505054222 17 38 8.0 9.7 0.00 0.00 0.00 40 1005.7
20260505053720 17 351 4.8 12.9 0.00 0.00 0.00 39 1005.8
20260505053216 18 34 4.8 9.7 0.00 0.00 0.00 39 1005.5
20260505052714 18 357 4.8 8.0 0.00 0.00 0.00 39 1005.4
20260505052210 18 352 6.4 11.3 0.00 0.00 0.00 38 1005.1
20260505051708 19 331 17.7 24.1 0.00 0.00 0.00 37 1005.0
20260505051205 19 18 4.8 14.5 0.00 0.00 0.00 38 1005.1
20260505050703 19 48 4.8 8.0 0.00 0.00 0.00 38 1004.7
20260505050202 20 34 6.4 9.7 0.00 0.00 0.00 38 1005.0
20260505041636 21 53 0.0 9.7 0.00 0.00 0.00 37 1004.1
20260505041134 21 32 1.6 3.2 0.00 0.00 0.00 37 1003.9
20260505040630 21 48 3.2 8.0 0.00 0.00 0.00 37 1004.2
20260505040128 21 42 3.2 4.8 0.00 0.00 0.00 37 1003.6
20260505035624 21 32 3.2 12.9 0.00 0.00 0.00 38 1003.8
20260505035120 21 311 4.8 8.0 0.00 0.00 0.00 43 1003.6
20260505034617 21 349 4.8 11.3 0.00 0.00 0.00 44 1003.6
20260505034114 21 16 3.2 3.2 0.00 0.00 0.00 49 1003.6
20260505033611 21 288 8.0 11.3 0.00 0.00 0.00 51 1003.5
20260505033109 21 31 1.6 4.8 0.00 0.00 0.00 53 1003.4
20260505032607 21 51 0.0 1.6 0.00 0.00 0.00 56 1003.5
20260505032103 20 49 1.6 11.3 0.00 0.00 0.00 60 1003.4
20260505031600 22 114 1.6 3.2 0.00 0.00 0.00 58 1002.9
20260505031056 21 114 0.0 0.0 0.00 0.00 0.00 58 1002.6
20260505030554 21 114 0.0 0.0 0.00 0.00 0.00 58 1002.6
20260505030049 22 114 0.0 0.0 0.00 0.00 0.00 57 1002.5
20260505025545 22 114 0.0 0.0 0.00 0.00 0.00 57 1002.4
20260505025045 22 114 0.0 0.0 0.00 0.00 0.00 56 1002.6
20260505024541 22 114 0.0 0.0 0.00 0.00 0.00 56 1002.4
20260505024038 22 114 0.0 0.0 0.00 0.00 0.00 57 1002.6
20260505023535 22 114 0.0 0.0 0.00 0.00 0.00 56 1002.4
20260505023033 22 114 0.0 0.0 0.00 0.00 0.00 56 1002.6
20260505022530 22 114 0.0 0.0 0.00 0.00 0.00 56 1002.2
20260505022027 22 114 0.0 0.0 0.00 0.00 0.00 55 1001.9
20260505021524 22 114 0.0 0.0 0.00 0.00 0.00 55 1002.0
20260505021020 22 114 0.0 0.0 0.00 0.00 0.00 55 1001.9
20260505020514 22 114 0.0 0.0 0.00 0.00 0.00 54 1002.0
20260505020012 23 114 0.0 0.0 0.00 0.00 0.00 54 1001.6
20260505015509 23 114 0.0 0.0 0.00 0.00 0.00 54 1002.0
20260505015006 23 114 0.0 0.0 0.00 0.00 0.00 54 1001.6
20260505014503 23 114 0.0 0.0 0.00 0.00 0.00 54 1001.6
20260505014000 22 114 0.0 0.0 0.00 0.00 0.00 55 1001.6
20260505013457 22 114 0.0 0.0 0.00 0.00 0.00 55 1001.4
20260505012954 22 114 0.0 0.0 0.00 0.00 0.00 55 1001.4
20260505012452 22 114 0.0 0.0 0.00 0.00 0.00 55 1001.4
20260505011949 23 114 0.0 0.0 0.00 0.00 0.00 55 1001.4
20260505011444 23 114 0.0 0.0 0.00 0.00 0.00 54 1001.3
20260505010942 23 114 0.0 0.0 0.00 0.00 0.00 54 1001.3
20260505010437 23 114 0.0 0.0 0.00 0.00 0.00 53 1001.0
20260505005933 23 114 0.0 0.0 0.00 0.00 0.00 52 1001.1
20260505005430 23 114 0.0 0.0 0.00 0.00 0.00 52 1001.1
20260505004928 24 114 0.0 0.0 0.00 0.00 0.00 52 1001.1
20260505004424 24 114 0.0 0.0 0.00 0.00 0.00 51 1001.0
20260505003922 25 114 0.0 0.0 0.00 0.00 0.00 51 1000.9
20260505003419 25 114 0.0 0.0 0.00 0.00 0.00 50 1000.8
20260505002915 25 114 0.0 0.0 0.00 0.00 0.00 48 1000.8
20260505002411 25 114 0.0 0.0 0.00 0.00 0.00 48 1000.7
20260505001910 25 115 0.0 0.0 0.00 0.00 0.00 47 1001.0
20260505001407 25 115 0.0 0.0 0.00 0.00 0.00 47 1000.8
20260505000904 26 112 0.0 0.0 0.00 0.00 0.00 46 1000.8
20260505000402 26 111 0.0 0.0 0.00 0.00 0.00 45 1000.9
20260504235858 26 115 0.0 0.0 0.00 0.00 0.00 46 1000.8
20260504235355 26 124 0.0 0.0 0.00 0.00 0.00 46 1001.0
20260504234851 26 117 0.0 0.0 0.00 0.00 0.00 47 1001.1
20260504234349 26 116 0.0 0.0 0.00 0.00 0.00 46 1000.9
20260504233846 26 114 0.0 0.0 0.00 0.00 0.00 45 1000.8
20260504233341 26 132 1.6 3.2 0.00 0.00 0.00 46 1001.1
20260504232838 26 119 0.0 3.2 0.00 0.00 0.00 46 1001.0
20260504232336 26 116 1.6 3.2 0.00 0.00 0.00 47 1000.8
20260504231832 26 116 0.0 3.2 0.00 0.00 0.00 47 1000.8
20260504231329 26 162 1.6 3.2 0.00 0.00 0.00 47 1000.9
20260504230825 26 102 0.0 4.8 0.00 0.00 0.00 46 1001.0
20260504230323 26 85 3.2 4.8 0.00 0.00 0.00 46 1001.0
20260504225822 26 134 1.6 4.8 0.00 0.00 0.00 45 1000.9
20260504225317 26 95 0.0 1.6 0.00 0.00 0.00 46 1001.2
20260504224815 27 115 0.0 1.6 0.00 0.00 0.00 45 1000.9
20260504224312 27 185 1.6 3.2 0.00 0.00 0.00 44 1001.1
20260504223808 27 161 0.0 1.6 0.00 0.00 0.00 42 1000.8
20260504223304 27 205 3.2 3.2 0.00 0.00 0.00 43 1000.8
20260504222801 27 229 4.8 9.7 0.00 0.00 0.00 41 1001.0
20260504222258 27 120 3.2 4.8 0.00 0.00 0.00 38 1001.1
20260504221755 27 224 0.0 3.2 0.00 0.00 0.00 38 1000.9
20260504221252 27 178 1.6 4.8 0.00 0.00 0.00 38 1001.0
20260504220749 27 238 6.4 8.0 0.00 0.00 0.00 38 1001.0
20260504220246 27 148 1.6 3.2 0.00 0.00 0.00 39 1001.0
20260504215743 27 228 3.2 4.8 0.00 0.00 0.00 38 1001.0
20260504215240 27 198 3.2 4.8 0.00 0.00 0.00 38 1001.0
20260504214736 27 223 3.2 4.8 0.00 0.00 0.00 38 1001.0
20260504214232 27 187 1.6 3.2 0.00 0.00 0.00 36 1000.9
20260504213729 27 230 8.0 8.0 0.00 0.00 0.00 36 1001.1
20260504213226 27 202 1.6 4.8 0.00 0.00 0.00 37 1000.9
20260504212723 28 216 1.6 4.8 0.00 0.00 0.00 38 1001.0
20260504212219 27 181 1.6 4.8 0.00 0.00 0.00 37 1001.1
20260504211717 27 223 3.2 3.2 0.00 0.00 0.00 36 1001.2
20260504211213 27 220 1.6 3.2 0.00 0.00 0.00 36 1001.2
20260504210710 27 88 0.0 3.2 0.00 0.00 0.00 36 1001.2
20260504210207 28 199 0.0 3.2 0.00 0.00 0.00 37 1001.2
20260504205704 28 228 6.4 8.0 0.00 0.00 0.00 35 1001.0
20260504205201 28 168 1.6 4.8 0.00 0.00 0.00 36 1001.1
20260504204700 28 162 3.2 4.8 0.00 0.00 0.00 37 1001.3
20260504204158 28 246 4.8 9.7 0.00 0.00 0.00 38 1001.3
20260504203657 28 193 1.6 3.2 0.00 0.00 0.00 39 1001.5
20260504203154 28 181 0.0 4.8 0.00 0.00 0.00 40 1001.4
20260504202648 28 222 3.2 4.8 0.00 0.00 0.00 36 1001.5
20260504202146 28 35 1.6 3.2 0.00 0.00 0.00 37 1001.6
20260504201643 28 240 3.2 3.2 0.00 0.00 0.00 37 1001.6
20260504201140 28 206 3.2 4.8 0.00 0.00 0.00 38 1001.5
20260504200637 27 253 3.2 4.8 0.00 0.00 0.00 41 1001.5
20260504200134 28 108 0.0 4.8 0.00 0.00 0.00 40 1001.7
20260504195630 28 199 4.8 8.0 0.00 0.00 0.00 39 1001.5
20260504195126 27 352 1.6 3.2 0.00 0.00 0.00 39 1001.7
20260504194623 27 246 3.2 4.8 0.00 0.00 0.00 40 1001.8
20260504194119 27 172 3.2 8.0 0.00 0.00 0.00 42 1001.8
20260504193615 27 156 4.8 8.0 0.00 0.00 0.00 43 1001.6
20260504193114 27 236 6.4 9.7 0.00 0.00 0.00 43 1001.5
20260504192612 27 251 1.6 8.0 0.00 0.00 0.00 41 1001.8
20260504192109 27 270 3.2 4.8 0.00 0.00 0.00 43 1001.8
20260504191608 27 249 4.8 9.7 0.00 0.00 0.00 42 1001.7
20260504191103 26 187 3.2 4.8 0.00 0.00 0.00 42 1001.5
20260504190600 26 258 3.2 9.7 0.00 0.00 0.00 40 1001.6
20260504190056 27 199 0.0 8.0 0.00 0.00 0.00 43 1001.6
20260504185553 26 198 0.0 3.2 0.00 0.00 0.00 44 1001.9
20260504185050 26 273 3.2 4.8 0.00 0.00 0.00 45 1001.8
20260504184545 26 216 3.2 4.8 0.00 0.00 0.00 44 1001.9
20260504184040 27 218 6.4 8.0 0.00 0.00 0.00 43 1001.7
20260504183538 26 61 0.0 4.8 0.00 0.00 0.00 43 1001.8
20260504183036 26 193 4.8 4.8 0.00 0.00 0.00 44 1002.0
20260504182532 26 113 0.0 3.2 0.00 0.00 0.00 45 1002.0
20260504182030 26 132 1.6 3.2 0.00 0.00 0.00 46 1001.8
20260504181527 26 221 6.4 8.0 0.00 0.00 0.00 47 1002.3
20260504181026 26 223 4.8 4.8 0.00 0.00 0.00 45 1001.9
20260504180524 26 160 1.6 3.2 0.00 0.00 0.00 45 1002.2
20260504180022 26 308 3.2 4.8 0.00 0.00 0.00 45 1002.2
20260504175519 25 145 1.6 4.8 0.00 0.00 0.00 46 1002.4
20260504175016 25 137 8.0 12.9 0.00 0.00 0.00 46 1002.5
20260504174514 25 31 1.6 3.2 0.00 0.00 0.00 46 1002.2
20260504174011 25 177 1.6 8.0 0.00 0.00 0.00 46 1002.4
20260504173507 25 326 3.2 4.8 0.00 0.00 0.00 48 1002.6
20260504173005 25 105 3.2 4.8 0.00 0.00 0.00 47 1002.5
20260504172501 25 262 3.2 4.8 0.00 0.00 0.00 46 1002.5
20260504171957 25 239 4.8 9.7 0.00 0.00 0.00 46 1002.7
20260504171454 25 120 1.6 3.2 0.00 0.00 0.00 47 1002.8
20260504170951 24 109 0.0 4.8 0.00 0.00 0.00 47 1002.6
20260504170447 23 220 3.2 3.2 0.00 0.00 0.00 48 1002.7
20260504160407 23 219 0.0 4.8 0.00 0.00 0.00 50 1002.8
20260504150831 21 148 3.2 8.0 0.00 0.00 0.00 51 1002.8
20260504150328 21 230 4.8 8.0 0.00 0.00 0.00 52 1003.1
20260504141258 20 188 3.2 8.0 0.00 0.00 0.00 56 1003.1
20260504140754 20 129 4.8 8.0 0.00 0.00 0.00 55 1003.2
20260504140250 20 210 4.8 4.8 0.00 0.00 0.00 56 1003.2
20260504130719 17 78 0.0 1.6 0.00 0.00 0.00 59 1003.6
20260504130214 17 90 0.0 0.0 0.00 0.00 0.00 61 1003.0
20260504120139 16 93 0.0 0.0 0.00 0.00 0.00 64 1003.3
20260504110606 16 90 0.0 0.0 0.00 0.00 0.00 63 1003.1